owner,sensor,date,latitude,longitude,vertical_datum,wind_speed,wind_to_direction,wind_speed_of_gust,qcFlag 
LOOP,urn:ioos:station:wmo:lopl1:1,2016-05-01T00:18:00Z,28.8850,-90.0250,10.0,10.8,25.0,12.7,'11111222,11111222,11111222' 
LOOP,urn:ioos:station:wmo:lopl1:1,2016-05-01T01:18:00Z,28.8850,-90.0250,10.0,10.9,66.0,12.1,'11111222,11111222,11111222' 
LOOP,urn:ioos:station:wmo:lopl1:1,2016-05-01T02:18:00Z,28.8850,-90.0250,10.0,11.0,94.0,13.1,'11111222,11111222,11111222' 
LOOP,urn:ioos:station:wmo:lopl1:1,2016-05-01T03:18:00Z,28.8850,-90.0250,10.0,11.4,111.0,12.3,'11111222,11111222,11111222' 
LOOP,urn:ioos:station:wmo:lopl1:1,2016-05-01T04:18:00Z,28.8850,-90.0250,10.0,9.4,118.0,10.4,'11111222,11111222,11111222' 
LOOP,urn:ioos:station:wmo:lopl1:1,2016-05-01T05:18:00Z,28.8850,-90.0250,10.0,10.1,126.0,10.9,'11111222,11111222,11111222' 
LOOP,urn:ioos:station:wmo:lopl1:1,2016-05-01T06:18:00Z,28.8850,-90.0250,10.0,9.1,137.0,10.3,'11111222,11111222,11111222' 
LOOP,urn:ioos:station:wmo:lopl1:1,2016-05-01T07:18:00Z,28.8850,-90.0250,10.0,8.9,140.0,9.7,'11111222,11111222,11111222' 
LOOP,urn:ioos:station:wmo:lopl1:1,2016-05-01T08:18:00Z,28.8850,-90.0250,10.0,9.5,151.0,10.3,'11111222,11111222,11111222' 
LOOP,urn:ioos:station:wmo:lopl1:1,2016-05-01T08:28:00Z,28.8850,-90.0250,10.0,9.5,153.0,10.3,'11111222,11111222,11111222' 
LOOP,urn:ioos:station:wmo:lopl1:1,2016-05-01T09:28:00Z,28.8850,-90.0250,10.0,9.0,149.0,9.9,'11111222,11111222,11111222' 
LOOP,urn:ioos:station:wmo:lopl1:1,2016-05-01T10:28:00Z,28.8850,-90.0250,10.0,8.8,151.0,9.5,'11111222,11111222,11111222' 
LOOP,urn:ioos:station:wmo:lopl1:1,2016-05-01T11:33:00Z,28.8850,-90.0250,10.0,8.5,152.0,9.4,'11111222,11111222,11111222' 
LOOP,urn:ioos:station:wmo:lopl1:1,2016-05-01T12:33:00Z,28.8850,-90.0250,10.0,8.5,149.0,9.3,'11111222,11111222,11111222' 
LOOP,urn:ioos:station:wmo:lopl1:1,2016-05-01T13:33:00Z,28.8850,-90.0250,10.0,9.0,145.0,9.7,'11111222,11111222,11111222' 
LOOP,urn:ioos:station:wmo:lopl1:1,2016-05-01T14:33:00Z,28.8850,-90.0250,10.0,10.1,146.0,10.7,'11111222,11111222,11111222' 
LOOP,urn:ioos:station:wmo:lopl1:1,2016-05-01T15:33:00Z,28.8850,-90.0250,10.0,9.8,146.0,10.9,'11111222,11111222,11111222' 
LOOP,urn:ioos:station:wmo:lopl1:1,2016-05-01T16:33:00Z,28.8850,-90.0250,10.0,9.2,147.0,10.2,'11111222,11111222,11111222' 
LOOP,urn:ioos:station:wmo:lopl1:1,2016-05-01T17:33:00Z,28.8850,-90.0250,10.0,9.3,140.0,10.2,'11111222,11111222,11111222' 
LOOP,urn:ioos:station:wmo:lopl1:1,2016-05-01T18:33:00Z,28.8850,-90.0250,10.0,5.0,122.0,5.5,'11111222,11111222,11111222' 
LOOP,urn:ioos:station:wmo:lopl1:1,2016-05-01T19:33:00Z,28.8850,-90.0250,10.0,4.3,96.0,4.9,'11111222,11111222,11111222' 
LOOP,urn:ioos:station:wmo:lopl1:1,2016-05-01T20:33:00Z,28.8850,-90.0250,10.0,6.4,85.0,7.6,'11111222,11111222,11111222' 
LOOP,urn:ioos:station:wmo:lopl1:1,2016-05-01T21:33:00Z,28.8850,-90.0250,10.0,17.0,8.0,20.2,'11111222,11111222,11111222' 
LOOP,urn:ioos:station:wmo:lopl1:1,2016-05-01T22:33:00Z,28.8850,-90.0250,10.0,18.5,17.0,20.9,'11111222,11111222,11111222' 
LOOP,urn:ioos:station:wmo:lopl1:1,2016-05-01T23:33:00Z,28.8850,-90.0250,10.0,16.7,20.0,19.9,'11111222,11111222,11111222' 
LOOP,urn:ioos:station:wmo:lopl1:1,2016-05-02T00:33:00Z,28.8850,-90.0250,10.0,13.7,32.0,16.3,'11111222,11111222,11111222' 
LOOP,urn:ioos:station:wmo:lopl1:1,2016-05-02T01:33:00Z,28.8850,-90.0250,10.0,11.3,29.0,14.4,'11111222,11111222,11111222' 
LOOP,urn:ioos:station:wmo:lopl1:1,2016-05-02T02:33:00Z,28.8850,-90.0250,10.0,9.0,51.0,12.1,'11111222,11111222,11111222' 
LOOP,urn:ioos:station:wmo:lopl1:1,2016-05-02T03:33:00Z,28.8850,-90.0250,10.0,9.0,87.0,10.0,'11111222,11111222,11111222' 
LOOP,urn:ioos:station:wmo:lopl1:1,2016-05-02T04:33:00Z,28.8850,-90.0250,10.0,13.4,141.0,15.1,'11111222,11111222,11111222' 
LOOP,urn:ioos:station:wmo:lopl1:1,2016-05-02T05:33:00Z,28.8850,-90.0250,10.0,7.7,144.0,9.3,'11111222,11111222,11111222' 
LOOP,urn:ioos:station:wmo:lopl1:1,2016-05-02T06:43:00Z,28.8850,-90.0250,10.0,15.5,151.0,16.5,'11111222,11111222,11111222' 
LOOP,urn:ioos:station:wmo:lopl1:1,2016-05-02T07:48:00Z,28.8850,-90.0250,10.0,13.1,153.0,15.5,'11111222,11111222,11111222' 
LOOP,urn:ioos:station:wmo:lopl1:1,2016-05-02T08:48:00Z,28.8850,-90.0250,10.0,10.5,177.0,12.8,'11111222,11111222,11111222' 
LOOP,urn:ioos:station:wmo:lopl1:1,2016-05-02T09:48:00Z,28.8850,-90.0250,10.0,10.5,162.0,12.2,'11111222,11111222,11111222' 
LOOP,urn:ioos:station:wmo:lopl1:1,2016-05-02T10:48:00Z,28.8850,-90.0250,10.0,9.8,170.0,11.3,'11111222,11111222,11111222' 
LOOP,urn:ioos:station:wmo:lopl1:1,2016-05-02T11:48:00Z,28.8850,-90.0250,10.0,7.7,159.0,8.9,'11111222,11111222,11111222' 
LOOP,urn:ioos:station:wmo:lopl1:1,2016-05-02T12:48:00Z,28.8850,-90.0250,10.0,3.7,6.0,5.1,'11111222,11111222,11111222' 
LOOP,urn:ioos:station:wmo:lopl1:1,2016-05-02T13:48:00Z,28.8850,-90.0250,10.0,1.0,356.0,1.4,'11111222,11111222,11111222' 
LOOP,urn:ioos:station:wmo:lopl1:1,2016-05-02T14:48:00Z,28.8850,-90.0250,10.0,1.2,-9999.0,2.5,'11111222,99999999,11111222' 
LOOP,urn:ioos:station:wmo:lopl1:1,2016-05-02T15:48:00Z,28.8850,-90.0250,10.0,1.0,74.0,1.6,'11111222,11111222,11111222' 
LOOP,urn:ioos:station:wmo:lopl1:1,2016-05-02T16:48:00Z,28.8850,-90.0250,10.0,2.4,53.0,2.8,'11111222,11111222,11111222' 
LOOP,urn:ioos:station:wmo:lopl1:1,2016-05-02T17:48:00Z,28.8850,-90.0250,10.0,2.8,63.0,3.4,'11111222,11111222,11111222' 
LOOP,urn:ioos:station:wmo:lopl1:1,2016-05-02T18:48:00Z,28.8850,-90.0250,10.0,4.4,82.0,5.0,'11111222,11111222,11111222' 
LOOP,urn:ioos:station:wmo:lopl1:1,2016-05-02T19:48:00Z,28.8850,-90.0250,10.0,4.4,78.0,4.9,'11111222,11111222,11111222' 
LOOP,urn:ioos:station:wmo:lopl1:1,2016-05-02T20:48:00Z,28.8850,-90.0250,10.0,2.5,100.0,2.9,'11111222,11111222,11111222' 
LOOP,urn:ioos:station:wmo:lopl1:1,2016-05-02T21:48:00Z,28.8850,-90.0250,10.0,2.6,305.0,3.3,'11111222,11111222,11111222' 
LOOP,urn:ioos:station:wmo:lopl1:1,2016-05-02T22:58:00Z,28.8850,-90.0250,10.0,8.4,130.0,9.3,'11111222,11111222,11111222' 
LOOP,urn:ioos:station:wmo:lopl1:1,2016-05-02T23:58:00Z,28.8850,-90.0250,10.0,8.1,157.0,9.2,'11111222,11111222,11111222' 
LOOP,urn:ioos:station:wmo:lopl1:1,2016-05-03T00:58:00Z,28.8850,-90.0250,10.0,8.3,165.0,9.9,'11111222,11111222,11111222' 
LOOP,urn:ioos:station:wmo:lopl1:1,2016-05-03T01:58:00Z,28.8850,-90.0250,10.0,5.9,162.0,6.6,'11111222,11111222,11111222' 
LOOP,urn:ioos:station:wmo:lopl1:1,2016-05-03T02:58:00Z,28.8850,-90.0250,10.0,1.9,93.0,2.3,'11111222,11111222,11111222' 
LOOP,urn:ioos:station:wmo:lopl1:1,2016-05-03T03:58:00Z,28.8850,-90.0250,10.0,3.7,27.0,4.2,'11111222,11111222,11111222' 
LOOP,urn:ioos:station:wmo:lopl1:1,2016-05-03T04:58:00Z,28.8850,-90.0250,10.0,3.4,62.0,4.2,'11111222,11111222,11111222' 
LOOP,urn:ioos:station:wmo:lopl1:1,2016-05-03T06:03:00Z,28.8850,-90.0250,10.0,2.4,67.0,2.9,'11111222,11111222,11111222' 
LOOP,urn:ioos:station:wmo:lopl1:1,2016-05-03T07:03:00Z,28.8850,-90.0250,10.0,1.3,46.0,1.5,'11111222,11111222,11111222' 
LOOP,urn:ioos:station:wmo:lopl1:1,2016-05-03T08:03:00Z,28.8850,-90.0250,10.0,1.3,24.0,1.6,'11111222,11111222,11111222' 
LOOP,urn:ioos:station:wmo:lopl1:1,2016-05-03T09:03:00Z,28.8850,-90.0250,10.0,2.1,24.0,2.6,'11111222,11111222,11111222' 
LOOP,urn:ioos:station:wmo:lopl1:1,2016-05-03T10:03:00Z,28.8850,-90.0250,10.0,2.7,44.0,3.5,'11111222,11111222,11111222' 
LOOP,urn:ioos:station:wmo:lopl1:1,2016-05-03T11:03:00Z,28.8850,-90.0250,10.0,2.9,63.0,3.6,'11111222,11111222,11111222' 
LOOP,urn:ioos:station:wmo:lopl1:1,2016-05-03T12:03:00Z,28.8850,-90.0250,10.0,3.1,72.0,3.5,'11111222,11111222,11111222' 
LOOP,urn:ioos:station:wmo:lopl1:1,2016-05-03T13:03:00Z,28.8850,-90.0250,10.0,2.4,59.0,2.9,'11111222,11111222,11111222' 
LOOP,urn:ioos:station:wmo:lopl1:1,2016-05-03T14:13:00Z,28.8850,-90.0250,10.0,7.9,8.0,9.0,'11111222,11111222,11111222' 
LOOP,urn:ioos:station:wmo:lopl1:1,2016-05-03T15:13:00Z,28.8850,-90.0250,10.0,7.0,9.0,8.4,'11111222,11111222,11111222' 
LOOP,urn:ioos:station:wmo:lopl1:1,2016-05-03T16:13:00Z,28.8850,-90.0250,10.0,7.7,4.0,8.6,'11111222,11111222,11111222' 
LOOP,urn:ioos:station:wmo:lopl1:1,2016-05-03T17:13:00Z,28.8850,-90.0250,10.0,7.1,12.0,7.9,'11111222,11111222,11111222' 
LOOP,urn:ioos:station:wmo:lopl1:1,2016-05-03T18:13:00Z,28.8850,-90.0250,10.0,5.7,24.0,6.6,'11111222,11111222,11111222' 
LOOP,urn:ioos:station:wmo:lopl1:1,2016-05-03T19:13:00Z,28.8850,-90.0250,10.0,5.8,12.0,6.9,'11111222,11111222,11111222' 
LOOP,urn:ioos:station:wmo:lopl1:1,2016-05-03T20:13:00Z,28.8850,-90.0250,10.0,4.5,4.0,5.2,'11111222,11111222,11111222' 
LOOP,urn:ioos:station:wmo:lopl1:1,2016-05-03T21:13:00Z,28.8850,-90.0250,10.0,3.2,12.0,4.0,'11111222,11111222,11111222' 
LOOP,urn:ioos:station:wmo:lopl1:1,2016-05-03T22:13:00Z,28.8850,-90.0250,10.0,2.9,17.0,3.6,'11111222,11111222,11111222' 
LOOP,urn:ioos:station:wmo:lopl1:1,2016-05-03T22:23:00Z,28.8850,-90.0250,10.0,2.7,22.0,3.2,'11111222,11111222,11111222' 
LOOP,urn:ioos:station:wmo:lopl1:1,2016-05-03T23:24:00Z,28.8850,-90.0250,10.0,2.7,352.0,3.3,'11111222,11111222,11111222' 
LOOP,urn:ioos:station:wmo:lopl1:1,2016-05-04T00:24:00Z,28.8850,-90.0250,10.0,3.4,349.0,4.9,'11111222,11111222,11111222' 
LOOP,urn:ioos:station:wmo:lopl1:1,2016-05-04T01:49:00Z,28.8850,-90.0250,10.0,6.4,353.0,7.4,'11111222,11111222,11111222' 
LOOP,urn:ioos:station:wmo:lopl1:1,2016-05-04T02:49:00Z,28.8850,-90.0250,10.0,6.5,344.0,8.5,'11111222,11111222,11111222' 
LOOP,urn:ioos:station:wmo:lopl1:1,2016-05-04T03:49:00Z,28.8850,-90.0250,10.0,6.4,347.0,8.2,'11111222,11111222,11111222' 
LOOP,urn:ioos:station:wmo:lopl1:1,2016-05-04T04:49:00Z,28.8850,-90.0250,10.0,6.0,343.0,8.1,'11111222,11111222,11111222' 
LOOP,urn:ioos:station:wmo:lopl1:1,2016-05-04T05:49:00Z,28.8850,-90.0250,10.0,6.8,345.0,9.2,'11111222,11111222,11111222' 
LOOP,urn:ioos:station:wmo:lopl1:1,2016-05-04T06:49:00Z,28.8850,-90.0250,10.0,7.1,333.0,8.5,'11111222,11111222,11111222' 
LOOP,urn:ioos:station:wmo:lopl1:1,2016-05-04T07:49:00Z,28.8850,-90.0250,10.0,11.8,4.0,14.0,'11111222,11111222,11111222' 
LOOP,urn:ioos:station:wmo:lopl1:1,2016-05-04T08:49:00Z,28.8850,-90.0250,10.0,11.8,0.0,13.6,'11111222,11111222,11111222' 
LOOP,urn:ioos:station:wmo:lopl1:1,2016-05-04T09:49:00Z,28.8850,-90.0250,10.0,14.0,0.0,15.8,'11111222,11111222,11111222' 
LOOP,urn:ioos:station:wmo:lopl1:1,2016-05-04T10:04:00Z,28.8850,-90.0250,10.0,13.5,351.0,15.5,'11111222,11111222,11111222' 
LOOP,urn:ioos:station:wmo:lopl1:1,2016-05-04T11:04:00Z,28.8850,-90.0250,10.0,14.6,0.0,16.7,'11111222,11111222,11111222' 
LOOP,urn:ioos:station:wmo:lopl1:1,2016-05-04T12:04:00Z,28.8850,-90.0250,10.0,13.4,0.0,16.1,'11111222,11111222,11111222' 
LOOP,urn:ioos:station:wmo:lopl1:1,2016-05-04T13:04:00Z,28.8850,-90.0250,10.0,13.1,350.0,15.7,'11111222,11111222,11111222' 
LOOP,urn:ioos:station:wmo:lopl1:1,2016-05-04T14:04:00Z,28.8850,-90.0250,10.0,12.0,359.0,14.4,'11111222,11111222,11111222' 
LOOP,urn:ioos:station:wmo:lopl1:1,2016-05-04T15:04:00Z,28.8850,-90.0250,10.0,9.8,4.0,12.9,'11111222,11111222,11111222' 
LOOP,urn:ioos:station:wmo:lopl1:1,2016-05-04T16:04:00Z,28.8850,-90.0250,10.0,9.1,356.0,11.0,'11111222,11111222,11111222' 
LOOP,urn:ioos:station:wmo:lopl1:1,2016-05-04T17:04:00Z,28.8850,-90.0250,10.0,9.4,350.0,13.7,'11111222,11111222,11111222' 
LOOP,urn:ioos:station:wmo:lopl1:1,2016-05-04T18:04:00Z,28.8850,-90.0250,10.0,8.4,353.0,13.9,'11111222,11111222,11111222' 
LOOP,urn:ioos:station:wmo:lopl1:1,2016-05-04T19:04:00Z,28.8850,-90.0250,10.0,8.3,341.0,10.9,'11111222,11111222,11111222' 
LOOP,urn:ioos:station:wmo:lopl1:1,2016-05-04T20:14:00Z,28.8850,-90.0250,10.0,6.5,354.0,8.4,'11111222,11111222,11111222' 
LOOP,urn:ioos:station:wmo:lopl1:1,2016-05-04T21:14:00Z,28.8850,-90.0250,10.0,4.5,336.0,5.7,'11111222,11111222,11111222' 
LOOP,urn:ioos:station:wmo:lopl1:1,2016-05-04T22:14:00Z,28.8850,-90.0250,10.0,5.7,305.0,7.5,'11111222,11111222,11111222' 
LOOP,urn:ioos:station:wmo:lopl1:1,2016-05-04T23:14:00Z,28.8850,-90.0250,10.0,7.5,306.0,10.3,'11111222,11111222,11111222' 
LOOP,urn:ioos:station:wmo:lopl1:1,2016-05-05T00:14:00Z,28.8850,-90.0250,10.0,4.9,330.0,4.9,'11111222,11111222,11111222' 
LOOP,urn:ioos:station:wmo:lopl1:1,2016-05-05T01:19:00Z,28.8850,-90.0250,10.0,5.7,325.0,8.1,'11111222,11111222,11111222' 
LOOP,urn:ioos:station:wmo:lopl1:1,2016-05-05T02:19:00Z,28.8850,-90.0250,10.0,6.5,333.0,8.6,'11111222,11111222,11111222' 
LOOP,urn:ioos:station:wmo:lopl1:1,2016-05-05T03:19:00Z,28.8850,-90.0250,10.0,6.6,313.0,8.5,'11111222,11111222,11111222' 
LOOP,urn:ioos:station:wmo:lopl1:1,2016-05-05T04:19:00Z,28.8850,-90.0250,10.0,6.4,314.0,8.3,'11111222,11111222,11111222' 
LOOP,urn:ioos:station:wmo:lopl1:1,2016-05-05T05:19:00Z,28.8850,-90.0250,10.0,7.0,305.0,8.2,'11111222,11111222,11111222' 
LOOP,urn:ioos:station:wmo:lopl1:1,2016-05-05T06:19:00Z,28.8850,-90.0250,10.0,7.2,299.0,8.3,'11111222,11111222,11111222' 
LOOP,urn:ioos:station:wmo:lopl1:1,2016-05-05T07:19:00Z,28.8850,-90.0250,10.0,7.8,286.0,9.9,'11111222,11111222,11111222' 
LOOP,urn:ioos:station:wmo:lopl1:1,2016-05-05T08:19:00Z,28.8850,-90.0250,10.0,8.0,283.0,9.5,'11111222,11111222,11111222' 
LOOP,urn:ioos:station:wmo:lopl1:1,2016-05-05T09:19:00Z,28.8850,-90.0250,10.0,10.7,288.0,12.9,'11111222,11111222,11111222' 
LOOP,urn:ioos:station:wmo:lopl1:1,2016-05-05T10:19:00Z,28.8850,-90.0250,10.0,10.5,281.0,11.7,'11111222,11111222,11111222' 
LOOP,urn:ioos:station:wmo:lopl1:1,2016-05-05T11:19:00Z,28.8850,-90.0250,10.0,10.7,297.0,12.5,'11111222,11111222,11111222' 
LOOP,urn:ioos:station:wmo:lopl1:1,2016-05-05T12:19:00Z,28.8850,-90.0250,10.0,10.7,304.0,12.4,'11111222,11111222,11111222' 
LOOP,urn:ioos:station:wmo:lopl1:1,2016-05-05T13:19:00Z,28.8850,-90.0250,10.0,8.2,334.0,11.2,'11111222,11111222,11111222' 
LOOP,urn:ioos:station:wmo:lopl1:1,2016-05-05T14:19:00Z,28.8850,-90.0250,10.0,6.0,317.0,8.1,'11111222,11111222,11111222' 
LOOP,urn:ioos:station:wmo:lopl1:1,2016-05-05T15:19:00Z,28.8850,-90.0250,10.0,4.6,327.0,7.5,'11111222,11111222,11111222' 
LOOP,urn:ioos:station:wmo:lopl1:1,2016-05-05T16:19:00Z,28.8850,-90.0250,10.0,5.5,337.0,6.7,'11111222,11111222,11111222' 
LOOP,urn:ioos:station:wmo:lopl1:1,2016-05-05T17:19:00Z,28.8850,-90.0250,10.0,4.3,348.0,6.2,'11111222,11111222,11111222' 
LOOP,urn:ioos:station:wmo:lopl1:1,2016-05-05T18:19:00Z,28.8850,-90.0250,10.0,4.5,1.0,5.3,'11111222,11111222,11111222' 
LOOP,urn:ioos:station:wmo:lopl1:1,2016-05-05T19:19:00Z,28.8850,-90.0250,10.0,2.9,357.0,3.3,'11111222,11111222,11111222' 
LOOP,urn:ioos:station:wmo:lopl1:1,2016-05-05T20:19:00Z,28.8850,-90.0250,10.0,1.9,296.0,2.8,'11111222,11111222,11111222' 
LOOP,urn:ioos:station:wmo:lopl1:1,2016-05-05T21:19:00Z,28.8850,-90.0250,10.0,1.4,269.0,2.5,'11111222,11111222,11111222' 
LOOP,urn:ioos:station:wmo:lopl1:1,2016-05-05T22:19:00Z,28.8850,-90.0250,10.0,6.1,272.0,7.0,'11111222,11111222,11111222' 
LOOP,urn:ioos:station:wmo:lopl1:1,2016-05-05T23:19:00Z,28.8850,-90.0250,10.0,8.0,275.0,8.7,'11111222,11111222,11111222' 
LOOP,urn:ioos:station:wmo:lopl1:1,2016-05-06T00:19:00Z,28.8850,-90.0250,10.0,7.1,324.0,8.8,'11111222,11111222,11111222' 
LOOP,urn:ioos:station:wmo:lopl1:1,2016-05-06T01:19:00Z,28.8850,-90.0250,10.0,4.3,27.0,5.6,'11111222,11111222,11111222' 
LOOP,urn:ioos:station:wmo:lopl1:1,2016-05-06T02:19:00Z,28.8850,-90.0250,10.0,7.4,350.0,8.8,'11111222,11111222,11111222' 
LOOP,urn:ioos:station:wmo:lopl1:1,2016-05-06T03:19:00Z,28.8850,-90.0250,10.0,8.2,339.0,10.9,'11111222,11111222,11111222' 
LOOP,urn:ioos:station:wmo:lopl1:1,2016-05-06T04:19:00Z,28.8850,-90.0250,10.0,9.9,351.0,13.2,'11111222,11111222,11111222' 
LOOP,urn:ioos:station:wmo:lopl1:1,2016-05-06T05:19:00Z,28.8850,-90.0250,10.0,13.8,1.0,15.9,'11111222,11111222,11111222' 
LOOP,urn:ioos:station:wmo:lopl1:1,2016-05-06T06:19:00Z,28.8850,-90.0250,10.0,13.4,5.0,13.4,'11111222,11111222,11111222' 
LOOP,urn:ioos:station:wmo:lopl1:1,2016-05-06T07:19:00Z,28.8850,-90.0250,10.0,11.7,11.0,13.8,'11111222,11111222,11111222' 
LOOP,urn:ioos:station:wmo:lopl1:1,2016-05-06T08:24:00Z,28.8850,-90.0250,10.0,10.9,6.0,13.0,'11111222,11111222,11111222' 
LOOP,urn:ioos:station:wmo:lopl1:1,2016-05-06T09:24:00Z,28.8850,-90.0250,10.0,8.7,16.0,11.3,'11111222,11111222,11111222' 
LOOP,urn:ioos:station:wmo:lopl1:1,2016-05-06T10:24:00Z,28.8850,-90.0250,10.0,9.7,17.0,11.1,'11111222,11111222,11111222' 
LOOP,urn:ioos:station:wmo:lopl1:1,2016-05-06T11:24:00Z,28.8850,-90.0250,10.0,9.1,18.0,11.2,'11111222,11111222,11111222' 
LOOP,urn:ioos:station:wmo:lopl1:1,2016-05-06T12:24:00Z,28.8850,-90.0250,10.0,9.9,17.0,10.8,'11111222,11111222,11111222' 
LOOP,urn:ioos:station:wmo:lopl1:1,2016-05-06T13:34:00Z,28.8850,-90.0250,10.0,6.9,19.0,8.8,'11111222,11111222,11111222' 
LOOP,urn:ioos:station:wmo:lopl1:1,2016-05-06T14:34:00Z,28.8850,-90.0250,10.0,7.3,20.0,8.7,'11111222,11111222,11111222' 
LOOP,urn:ioos:station:wmo:lopl1:1,2016-05-06T15:34:00Z,28.8850,-90.0250,10.0,6.5,15.0,8.3,'11111222,11111222,11111222' 
LOOP,urn:ioos:station:wmo:lopl1:1,2016-05-06T16:34:00Z,28.8850,-90.0250,10.0,6.2,0.0,8.0,'11111222,11111222,11111222' 
LOOP,urn:ioos:station:wmo:lopl1:1,2016-05-06T17:34:00Z,28.8850,-90.0250,10.0,6.8,356.0,8.5,'11111222,11111222,11111222' 
LOOP,urn:ioos:station:wmo:lopl1:1,2016-05-06T18:34:00Z,28.8850,-90.0250,10.0,8.1,338.0,9.7,'11111222,11111222,11111222' 
LOOP,urn:ioos:station:wmo:lopl1:1,2016-05-06T19:34:00Z,28.8850,-90.0250,10.0,6.9,356.0,8.8,'11111222,11111222,11111222' 
LOOP,urn:ioos:station:wmo:lopl1:1,2016-05-06T20:34:00Z,28.8850,-90.0250,10.0,8.0,348.0,9.3,'11111222,11111222,11111222' 
LOOP,urn:ioos:station:wmo:lopl1:1,2016-05-06T21:34:00Z,28.8850,-90.0250,10.0,7.8,15.0,9.4,'11111222,11111222,11111222' 
LOOP,urn:ioos:station:wmo:lopl1:1,2016-05-06T22:34:00Z,28.8850,-90.0250,10.0,6.5,12.0,8.2,'11111222,11111222,11111222' 
LOOP,urn:ioos:station:wmo:lopl1:1,2016-05-06T23:34:00Z,28.8850,-90.0250,10.0,6.1,24.0,7.4,'11111222,11111222,11111222' 
LOOP,urn:ioos:station:wmo:lopl1:1,2016-05-07T00:34:00Z,28.8850,-90.0250,10.0,6.7,13.0,7.6,'11111222,11111222,11111222' 
LOOP,urn:ioos:station:wmo:lopl1:1,2016-05-07T01:34:00Z,28.8850,-90.0250,10.0,4.6,357.0,5.9,'11111222,11111222,11111222' 
LOOP,urn:ioos:station:wmo:lopl1:1,2016-05-07T02:34:00Z,28.8850,-90.0250,10.0,2.4,340.0,4.7,'11111222,11111222,11111222' 
LOOP,urn:ioos:station:wmo:lopl1:1,2016-05-07T03:34:00Z,28.8850,-90.0250,10.0,3.3,265.0,3.8,'11111222,11111222,11111222' 
LOOP,urn:ioos:station:wmo:lopl1:1,2016-05-07T04:34:00Z,28.8850,-90.0250,10.0,2.9,282.0,4.1,'11111222,11111222,11111222' 
LOOP,urn:ioos:station:wmo:lopl1:1,2016-05-07T05:39:00Z,28.8850,-90.0250,10.0,2.0,301.0,2.7,'11111222,11111222,11111222' 
LOOP,urn:ioos:station:wmo:lopl1:1,2016-05-07T06:39:00Z,28.8850,-90.0250,10.0,1.2,301.0,2.2,'11111222,11111222,11111222' 
LOOP,urn:ioos:station:wmo:lopl1:1,2016-05-07T07:54:00Z,28.8850,-90.0250,10.0,0.6,334.0,2.0,'11111222,11111222,11111222' 
LOOP,urn:ioos:station:wmo:lopl1:1,2016-05-07T08:54:00Z,28.8850,-90.0250,10.0,2.3,357.0,3.0,'11111222,11111222,11111222' 
LOOP,urn:ioos:station:wmo:lopl1:1,2016-05-07T09:54:00Z,28.8850,-90.0250,10.0,2.0,0.0,2.7,'11111222,11111222,11111222' 
LOOP,urn:ioos:station:wmo:lopl1:1,2016-05-07T10:54:00Z,28.8850,-90.0250,10.0,2.7,66.0,3.9,'11111222,11111222,11111222' 
LOOP,urn:ioos:station:wmo:lopl1:1,2016-05-07T11:54:00Z,28.8850,-90.0250,10.0,3.0,30.0,3.8,'11111222,11111222,11111222' 
LOOP,urn:ioos:station:wmo:lopl1:1,2016-05-07T12:54:00Z,28.8850,-90.0250,10.0,2.6,100.0,3.4,'11111222,11111222,11111222' 
LOOP,urn:ioos:station:wmo:lopl1:1,2016-05-07T13:54:00Z,28.8850,-90.0250,10.0,2.8,103.0,3.4,'11111222,11111222,11111222' 
LOOP,urn:ioos:station:wmo:lopl1:1,2016-05-07T14:54:00Z,28.8850,-90.0250,10.0,2.6,104.0,3.4,'11111222,11111222,11111222' 
LOOP,urn:ioos:station:wmo:lopl1:1,2016-05-07T15:54:00Z,28.8850,-90.0250,10.0,2.4,98.0,3.0,'11111222,11111222,11111222' 
LOOP,urn:ioos:station:wmo:lopl1:1,2016-05-07T16:54:00Z,28.8850,-90.0250,10.0,2.3,104.0,3.0,'11111222,11111222,11111222' 
LOOP,urn:ioos:station:wmo:lopl1:1,2016-05-07T17:54:00Z,28.8850,-90.0250,10.0,1.8,126.0,2.4,'11111222,11111222,11111222' 
LOOP,urn:ioos:station:wmo:lopl1:1,2016-05-07T18:54:00Z,28.8850,-90.0250,10.0,1.8,88.0,2.7,'11111222,11111222,11111222' 
LOOP,urn:ioos:station:wmo:lopl1:1,2016-05-07T19:54:00Z,28.8850,-90.0250,10.0,1.6,137.0,2.0,'11111222,11111222,11111222' 
LOOP,urn:ioos:station:wmo:lopl1:1,2016-05-07T20:54:00Z,28.8850,-90.0250,10.0,1.8,120.0,3.0,'11111222,11111222,11111222' 
LOOP,urn:ioos:station:wmo:lopl1:1,2016-05-07T21:54:00Z,28.8850,-90.0250,10.0,1.4,-9999.0,1.8,'11111222,99999999,11111222' 
LOOP,urn:ioos:station:wmo:lopl1:1,2016-05-07T22:54:00Z,28.8850,-90.0250,10.0,2.3,154.0,3.4,'11111222,11111222,11111222' 
LOOP,urn:ioos:station:wmo:lopl1:1,2016-05-07T23:54:00Z,28.8850,-90.0250,10.0,2.1,-9999.0,3.4,'11111222,99999999,11111222' 
LOOP,urn:ioos:station:wmo:lopl1:1,2016-05-08T00:54:00Z,28.8850,-90.0250,10.0,1.7,156.0,2.6,'11111222,11111222,11111222' 
LOOP,urn:ioos:station:wmo:lopl1:1,2016-05-08T01:54:00Z,28.8850,-90.0250,10.0,3.0,-9999.0,4.4,'11111222,99999999,11111222' 
LOOP,urn:ioos:station:wmo:lopl1:1,2016-05-08T02:54:00Z,28.8850,-90.0250,10.0,3.1,-9999.0,3.9,'11111222,99999999,11111222' 
LOOP,urn:ioos:station:wmo:lopl1:1,2016-05-08T03:54:00Z,28.8850,-90.0250,10.0,2.7,-9999.0,3.7,'11111222,99999999,11111222' 
LOOP,urn:ioos:station:wmo:lopl1:1,2016-05-08T04:54:00Z,28.8850,-90.0250,10.0,5.0,-9999.0,6.5,'11111222,99999999,11111222' 
LOOP,urn:ioos:station:wmo:lopl1:1,2016-05-08T05:54:00Z,28.8850,-90.0250,10.0,3.8,-9999.0,5.3,'11111222,99999999,11111222' 
LOOP,urn:ioos:station:wmo:lopl1:1,2016-05-08T06:54:00Z,28.8850,-90.0250,10.0,3.1,-9999.0,4.5,'11111222,99999999,11111222' 
LOOP,urn:ioos:station:wmo:lopl1:1,2016-05-08T07:54:00Z,28.8850,-90.0250,10.0,4.1,-9999.0,5.5,'11111222,99999999,11111222' 
LOOP,urn:ioos:station:wmo:lopl1:1,2016-05-08T08:54:00Z,28.8850,-90.0250,10.0,3.0,-9999.0,4.2,'11111222,99999999,11111222' 
LOOP,urn:ioos:station:wmo:lopl1:1,2016-05-08T09:54:00Z,28.8850,-90.0250,10.0,1.3,-9999.0,1.8,'11111222,99999999,11111222' 
LOOP,urn:ioos:station:wmo:lopl1:1,2016-05-08T10:54:00Z,28.8850,-90.0250,10.0,3.7,171.0,4.6,'11111222,11111222,11111222' 
LOOP,urn:ioos:station:wmo:lopl1:1,2016-05-08T11:54:00Z,28.8850,-90.0250,10.0,2.3,-9999.0,3.1,'11111222,99999999,11111222' 
LOOP,urn:ioos:station:wmo:lopl1:1,2016-05-08T12:54:00Z,28.8850,-90.0250,10.0,2.6,175.0,3.8,'11111222,11111222,11111222' 
LOOP,urn:ioos:station:wmo:lopl1:1,2016-05-08T13:04:00Z,28.8850,-90.0250,10.0,3.8,163.0,4.5,'11111222,11111222,11111222' 
LOOP,urn:ioos:station:wmo:lopl1:1,2016-05-08T14:04:00Z,28.8850,-90.0250,10.0,3.6,157.0,4.6,'11111222,11111222,11111222' 
LOOP,urn:ioos:station:wmo:lopl1:1,2016-05-08T15:04:00Z,28.8850,-90.0250,10.0,4.4,157.0,5.6,'11111222,11111222,11111222' 
LOOP,urn:ioos:station:wmo:lopl1:1,2016-05-08T16:04:00Z,28.8850,-90.0250,10.0,4.5,173.0,5.5,'11111222,11111222,11111222' 
LOOP,urn:ioos:station:wmo:lopl1:1,2016-05-08T17:09:00Z,28.8850,-90.0250,10.0,4.1,166.0,5.4,'11111222,11111222,11111222' 
LOOP,urn:ioos:station:wmo:lopl1:1,2016-05-08T18:09:00Z,28.8850,-90.0250,10.0,4.2,144.0,5.2,'11111222,11111222,11111222' 
LOOP,urn:ioos:station:wmo:lopl1:1,2016-05-08T19:09:00Z,28.8850,-90.0250,10.0,3.7,148.0,4.9,'11111222,11111222,11111222' 
LOOP,urn:ioos:station:wmo:lopl1:1,2016-05-08T20:09:00Z,28.8850,-90.0250,10.0,5.0,146.0,6.0,'11111222,11111222,11111222' 
LOOP,urn:ioos:station:wmo:lopl1:1,2016-05-08T21:09:00Z,28.8850,-90.0250,10.0,5.3,158.0,6.9,'11111222,11111222,11111222' 
LOOP,urn:ioos:station:wmo:lopl1:1,2016-05-08T22:09:00Z,28.8850,-90.0250,10.0,5.0,142.0,5.9,'11111222,11111222,11111222' 
LOOP,urn:ioos:station:wmo:lopl1:1,2016-05-08T23:09:00Z,28.8850,-90.0250,10.0,4.2,145.0,5.3,'11111222,11111222,11111222' 
LOOP,urn:ioos:station:wmo:lopl1:1,2016-05-09T00:09:00Z,28.8850,-90.0250,10.0,4.5,142.0,5.3,'11111222,11111222,11111222' 
LOOP,urn:ioos:station:wmo:lopl1:1,2016-05-09T01:09:00Z,28.8850,-90.0250,10.0,5.7,138.0,6.6,'11111222,11111222,11111222' 
LOOP,urn:ioos:station:wmo:lopl1:1,2016-05-09T02:09:00Z,28.8850,-90.0250,10.0,7.2,133.0,8.3,'11111222,11111222,11111222' 
LOOP,urn:ioos:station:wmo:lopl1:1,2016-05-09T03:09:00Z,28.8850,-90.0250,10.0,7.5,126.0,8.3,'11111222,11111222,11111222' 